This is the latest recevied weather packets stored in our database for station/object W0WC. If no packets are shown the sender has not sent any weather packets the latest 10 day(s).
| Time | Temp. | Humidity | Pressure | Rain* | Wind** | Luminosity | Snow |
|---|---|---|---|---|---|---|---|
| 1777919150 | 25.56° C | 47% | 1006.1 hPa | 0 mm | - | 789 W/m² | - |
| 1777918848 | 25.56° C | 46% | 1006.2 hPa | 0 mm | - | 796 W/m² | - |
| 1777918545 | 25.56° C | 45% | 1006.4 hPa | 0 mm | - | 795 W/m² | - |
| 1777918243 | 26.11° C | 45% | 1006.4 hPa | 0 mm | - | 796 W/m² | - |
| 1777917942 | 26.11° C | 45% | 1006.4 hPa | 0 mm | - | 792 W/m² | - |
| 1777917640 | 26.11° C | 45% | 1006.5 hPa | 0 mm | - | 789 W/m² | - |
| 1777917337 | 26.11° C | 45% | 1006.7 hPa | 0 mm | - | 789 W/m² | - |
| 1777917034 | 25.56° C | 46% | 1006.6 hPa | 0 mm | - | 789 W/m² | - |
| 1777916732 | 25.56° C | 45% | 1006.6 hPa | 0 mm | - | 789 W/m² | - |
| 1777916428 | 25.56° C | 45% | 1006.5 hPa | 0 mm | - | 789 W/m² | - |
| 1777916125 | 25.56° C | 45% | 1006.6 hPa | 0 mm | - | 784 W/m² | - |
| 1777915823 | 25.56° C | 46% | 1006.7 hPa | 0 mm | - | 778 W/m² | - |
| 1777915519 | 25° C | 47% | 1006.7 hPa | 0 mm | - | 775 W/m² | - |
| 1777915215 | 25° C | 47% | 1006.7 hPa | 0 mm | - | 770 W/m² | - |
| 1777914912 | 25° C | 47% | 1006.7 hPa | 0 mm | - | 767 W/m² | - |
| 1777914609 | 25° C | 47% | 1006.6 hPa | 0 mm | - | 761 W/m² | - |
| 1777914305 | 25° C | 47% | 1006.7 hPa | 0 mm | - | 753 W/m² | - |
| 1777914003 | 24.44° C | 46% | 1007.1 hPa | 0 mm | - | 746 W/m² | - |
| 1777913699 | 24.44° C | 47% | 1007.1 hPa | 0 mm | - | 740 W/m² | - |
| 1777913396 | 24.44° C | 46% | 1007.3 hPa | 0 mm | - | 735 W/m² | - |
| 1777913092 | 24.44° C | 47% | 1007 hPa | 0 mm | - | 726 W/m² | - |
| 1777912788 | 24.44° C | 48% | 1007 hPa | 0 mm | - | 718 W/m² | - |
| 1777912484 | 24.44° C | 47% | 1007.1 hPa | 0 mm | - | 711 W/m² | - |
| 1777912181 | 23.89° C | 48% | 1007.2 hPa | 0 mm | - | 700 W/m² | - |
| 1777911877 | 24.44° C | 48% | 1007.2 hPa | 0 mm | - | 694 W/m² | - |
* Rain latest hour (hover to see other rain measurements)
** Current wind speed in m/s (hover to see current wind gust speed)